CW3583 Weather Reports


time (UTC)temp
C
wind
direction
speed
KPH
gust
KPH
rain 1hr
cm
rain 24hr
cm
rain mn
cm
humidity
%
barometer
mb
20260510202306 15 227 8.0 11.3 0.00 0.18 0.18 87 1011.3
20260510201303 15 224 4.8 9.7 0.00 0.18 0.18 87 1010.9
20260510195803 15 228 4.8 9.7 0.00 0.18 0.18 87 1010.9
20260510194303 15 225 6.4 9.7 0.00 0.18 0.18 86 1010.8
20260510192306 15 233 8.0 8.0 0.00 0.18 0.18 85 1010.7
20260510191806 15 237 4.8 9.7 0.00 0.18 0.18 85 1010.7
20260510191303 15 241 8.0 12.9 0.00 0.18 0.18 85 1010.7
20260510190804 15 240 6.4 11.3 0.00 0.18 0.18 85 1010.7
20260510190306 16 237 6.4 11.3 0.00 0.18 0.18 85 1010.6
20260510185305 16 249 8.0 11.3 0.03 0.18 0.18 84 1010.5
20260510184303 16 286 3.2 4.8 0.08 0.18 0.18 84 1010.4
20260510180305 15 256 11.3 20.9 0.15 0.18 0.18 82 1010.1
20260510174806 16 305 19.3 32.2 0.08 0.13 0.13 82 1009.9
20260510174303 16 309 17.7 32.2 0.05 0.10 0.10 81 1009.8
20260510173305 16 310 19.3 29.0 0.03 0.05 0.05 79 1009.6
20260510171806 17 333 16.1 24.1 0.00 0.05 0.05 78 1009.6
20260510170803 17 342 11.3 19.3 0.00 0.05 0.05 77 1009.5
20260510170306 17 330 14.5 20.9 0.00 0.05 0.05 76 1009.4
20260510165804 17 325 9.7 14.5 0.00 0.05 0.05 76 1009.3
20260510164807 17 333 14.5 19.3 0.00 0.05 0.05 75 1009.2
20260510162306 18 348 14.5 22.5 0.00 0.05 0.05 67 1008.7
20260510160306 18 244 11.3 19.3 0.00 0.05 0.05 63 1008.2
20260510155803 19 296 8.0 20.9 0.00 0.05 0.05 64 1008.1
20260510155305 19 254 14.5 20.9 0.05 0.05 0.05 63 1008.1
20260510145804 18 195 14.5 32.2 0.05 0.05 0.05 59 1008.3
20260510144806 20 229 11.3 19.3 0.00 0.03 0.00 50 1008.1
20260510140306 19 67 6.4 22.5 0.00 0.03 0.00 54 1008.0
20260510135803 19 131 9.7 20.9 0.00 0.03 0.00 55 1008.0
20260510134807 19 148 4.8 14.5 0.00 0.03 0.00 56 1008.4
20260510133804 18 186 4.8 11.3 0.00 0.03 0.00 56 1008.3
20260510133306 18 196 8.0 16.1 0.00 0.03 0.00 56 1008.3
20260510131806 18 119 9.7 20.9 0.00 0.03 0.00 56 1007.7
20260510131304 18 79 14.5 20.9 0.00 0.03 0.00 55 1007.1
20260510125803 18 172 8.0 22.5 0.00 0.03 0.00 53 1008.3
20260510123803 18 203 14.5 41.8 0.00 0.03 0.00 55 1009.4
20260510123305 18 169 9.7 22.5 0.00 0.03 0.00 57 1009.5
20260510121303 17 203 9.7 19.3 0.00 0.03 0.00 67 1009.6
20260510120305 17 117 9.7 16.1 0.00 0.03 0.00 76 1009.5
20260510114304 17 87 9.7 19.3 0.00 0.03 0.00 76 1009.5
20260510112804 17 60 9.7 20.9 0.00 0.03 0.00 76 1009.5
20260510111304 17 27 8.0 29.0 0.00 0.03 0.00 76 1009.5
20260510105804 17 21 14.5 20.9 0.00 0.03 0.00 75 1009.4
20260510104806 17 73 8.0 11.3 0.00 0.03 0.00 76 1009.6
20260510104303 17 41 11.3 19.3 0.00 0.03 0.00 76 1009.5
20260510103307 17 333 9.7 19.3 0.00 0.03 0.00 74 1009.3
20260510102306 17 30 12.9 19.3 0.00 0.03 0.00 73 1009.2
20260510100306 18 327 14.5 20.9 0.00 0.03 0.00 67 1009.2
20260510095803 18 69 6.4 12.9 0.00 0.03 0.00 64 1009.4
20260510095305 19 90 8.0 16.1 0.00 0.03 0.00 63 1009.4
20260510094807 20 119 4.8 16.1 0.00 0.03 0.00 62 1009.4
20260510085803 20 210 4.8 12.9 0.00 0.03 0.00 54 1009.3
20260510083804 19 129 6.4 12.9 0.00 0.03 0.00 55 1009.4
20260510082804 19 192 4.8 11.3 0.00 0.03 0.00 56 1009.4
20260510081303 18 178 4.8 9.7 0.00 0.03 0.00 56 1009.5
20260510072305 17 221 9.7 14.5 0.00 0.05 0.00 61 1009.2
20260510071806 17 225 8.0 14.5 0.00 0.05 0.00 61 1009.2
20260510070305 17 191 8.0 14.5 0.00 0.05 0.00 61 1008.9
20260510065804 17 199 8.0 16.1 0.00 0.05 0.00 61 1008.9
20260510063306 16 245 8.0 12.9 0.00 0.05 0.00 65 1008.7
20260510061806 17 213 4.8 9.7 0.00 0.05 0.00 64 1008.6
20260510060804 16 279 6.4 9.7 0.00 0.05 0.00 64 1008.5
20260510055803 16 235 9.7 19.3 0.00 0.05 0.00 65 1008.3
20260510053804 16 186 3.2 4.8 0.00 0.05 0.00 67 1008.2
20260510050804 16 231 3.2 16.1 0.00 0.05 0.00 66 1008.0
20260510050306 16 241 4.8 11.3 0.00 0.05 0.00 66 1007.9
20260510045306 16 252 8.0 12.9 0.00 0.05 0.00 67 1007.8
20260510043307 16 295 3.2 8.0 0.00 0.05 0.00 69 1007.8
20260510042804 17 274 3.2 9.7 0.00 0.05 0.00 68 1007.7
20260510042306 17 280 4.8 8.0 0.00 0.05 0.00 67 1007.8
20260510035804 17 253 4.8 12.9 0.00 0.05 0.00 65 1007.6
20260510033804 17 236 9.7 14.5 0.00 0.05 0.00 63 1007.6
20260510033306 17 225 9.7 22.5 0.00 0.05 0.00 62 1007.5
20260510032306 17 231 11.3 25.7 0.00 0.05 0.00 63 1007.3
20260510022804 17 189 19.3 32.2 0.00 0.05 0.00 64 1006.8
20260510021304 17 222 6.4 22.5 0.00 0.05 0.00 63 1006.9
20260510020803 17 198 11.3 19.3 0.00 0.05 0.00 63 1006.9
20260510020307 17 191 14.5 24.1 0.00 0.05 0.00 63 1007.0
20260510015306 17 213 14.5 32.2 0.00 0.05 0.00 63 1007.0
20260510014806 17 242 14.5 29.0 0.00 0.05 0.00 63 1007.2
20260510014304 17 219 9.7 19.3 0.00 0.05 0.00 64 1007.1
20260510012804 17 208 20.9 37.0 0.00 0.05 0.00 64 1007.0
20260510010803 17 204 14.5 32.2 0.00 0.05 0.00 65 1007.2
20260510010306 17 210 9.7 19.3 0.00 0.05 0.00 65 1007.2
20260510005306 17 206 9.7 19.3 0.00 0.05 0.00 65 1007.4
20260510004807 17 148 14.5 22.5 0.00 0.05 0.00 65 1007.5
20260510002803 18 182 19.3 27.4 0.00 0.05 0.00 62 1007.7
20260510001807 18 185 11.3 25.7 0.00 0.05 0.00 61 1007.5
20260510001303 18 197 16.1 27.4 0.00 0.05 0.00 60 1007.6
20260510000306 18 197 9.7 27.4 0.00 0.05 0.00 61 1007.7
20260509234806 18 233 9.7 20.9 0.00 0.05 0.00 63 1007.8
20260509233306 17 170 1.6 12.9 0.00 0.05 0.00 69 1007.9
20260509231806 17 280 3.2 4.8 0.00 0.05 0.00 70 1008.0
20260509230806 17 102 4.8 12.9 0.00 0.05 0.00 70 1007.9
20260509230308 17 108 4.8 9.7 0.00 0.05 0.00 70 1007.8
20260509225803 17 161 8.0 16.1 0.00 0.05 0.00 70 1007.8
20260509224806 17 137 4.8 12.9 0.00 0.05 0.00 71 1008.0
20260509224303 17 197 3.2 9.7 0.00 0.05 0.00 71 1008.0
20260509222804 17 252 4.8 11.3 0.00 0.05 0.00 71 1007.8
20260509220306 18 191 4.8 9.7 0.00 0.05 0.00 69 1007.8
20260509214304 18 155 3.2 16.1 0.00 0.05 0.05 71 1008.1
20260509213804 18 206 4.8 9.7 0.00 0.05 0.05 71 1008.2
20260509213307 18 188 3.2 14.5 0.00 0.05 0.05 70 1008.3
20260509212306 18 211 9.7 19.3 0.00 0.05 0.05 70 1008.3
20260509211303 18 220 9.7 14.5 0.00 0.05 0.05 71 1008.3
20260509210804 18 248 4.8 16.1 0.00 0.05 0.05 73 1008.3
20260509210306 18 239 11.3 16.1 0.00 0.05 0.05 73 1008.3
20260509205804 18 260 1.6 11.3 0.00 0.05 0.05 73 1007.9
20260509205307 18 116 1.6 4.8 0.00 0.05 0.05 73 1007.6
20260509204807 18 107 1.6 8.0 0.00 0.05 0.05 73 1007.6